COSMOS 2273

Satellite information

Favourite Embed

Satellite Type and Status

PAYLOADIN ORBIT

Key statistics

Satellite COSMOS 2273 at a glance.

Uptime

11585

Days in orbit

Revolutions

≈ 12.6

Per day

Orbit

LEO

Low Earth Orbit

Inclination

82.6

Latest

Satellite identification and parameters

Extended collection of information and parameters for COSMOS 2273.

Object identification

Identified? True

Debris? False

Object name: COSMOS 2273

International designator: 1994-011F

Object number (NORAD): 23004

Object ID (CCSDS): 23004

Country: COMMONWEALTH OF INDEPENDENT STATES (CIS)

Current information (Y/N): Y

RCS size: MEDIUM

Orbital parameters

Period: 114.022 minutes

Inclination: 82.5706 deg

SMA: 7789.086 km

Apoapsis: 1414.789 km

Periapsis: 1407.112 km

RAAN: 101.0446 deg

Eccentricy: 0.0004928

Argument of periapsis: 357.7078 deg

Mean anomaly: 12.6437 deg

Mean motion: 12.62911826 rev/day

Mean motion (dot): 0.0000004 rev/day2

B* drag term: 0.00016516 1/REarth

Two-line elements (TLE)

Creation date: Oct. 31, 2025, 11:16 p.m.

Reference frame: TEME

Reference center: EARTH

Epoch: Oct. 31, 2025, 5:39 p.m. UTC

TLE line 0: 0 COSMOS 2273

TLE line 1: 1 23004U 94011F 25304.73541986 .00000040 00000-0 16516-3 0 9997

TLE line 2: 2 23004 82.5706 101.0446 0004928 357.7078 12.6437 12.62911826461917

Live tracking on map

Real-time ground track for satellite COSMOS 2273.

In-orbit conjunctions

There are no conjunctions computed for COSMOS 2273, at the moment. Check back to stay up to date, as we update our databases every day.

Go to all conjunctions

Associated space launch

Second generation store-dump military communications satellites

COSMOS 2273 was lifted into orbit during the mission ‘Tsiklon-3 | Strela-3 101 to 106’, on board a Tsiklon-3 space rocket.

The launch took place on Feb. 12, 1994, 8:54 a.m. from 32/1.

For more information about the launch, click the button.

Launch to space Tsiklon-3 | Strela-3 101 to 106
Tsiklon-3 | Strela-3 101 to 106

Agency: N/A

Status: Launch Successful

Launch date: Feb. 12, 1994, 8:54 a.m. UTC

Rocket: Tsiklon-3

Launch pad: 32/1

Location: Plesetsk Cosmodrome, Russian Federation

...

Latest news about this satellite

There are no fresh news available about this satellite. Check back as we update our databases every day.


Newsletter sign-up

Weekly statistics, charts and insights to help you stay on top of the space industry.